Time,TemperatureF,DewpointF,PressureIn,WindDirection,WindDirectionDegrees,WindSpeedMPH,WindSpeedGustMPH,Humidity,HourlyPrecipIn,Conditions,Clouds,dailyrainin,SoftwareType,DateUTC
2013-02-26 06:50:00,76.1,72.6,30.79,SSW,205,3.0,12.0,89,0.00,,,0.00,Wunderground v.1.15,2013-02-26 11:50:00,
2013-02-26 06:51:00,76.1,72.6,30.79,SSW,212,3.0,12.0,89,0.00,,,0.00,Wunderground v.1.15,2013-02-26 11:51:00,
2013-02-26 06:52:00,76.1,72.6,30.79,WSW,240,3.0,12.0,89,0.00,,,0.00,Wunderground v.1.15,2013-02-26 11:52:00,
2013-02-26 06:58:00,76.0,72.5,30.79,West,264,4.0,12.0,89,0.00,,,0.00,Wunderground v.1.15,2013-02-26 11:58:00,
2013-02-26 07:03:00,76.1,72.6,30.79,SW,224,3.0,12.0,89,0.00,,,0.00,Wunderground v.1.15,2013-02-26 12:03:00,
2013-02-26 07:09:00,75.9,71.8,30.79,SSE,158,4.0,12.0,87,0.00,,,0.00,Wunderground v.1.15,2013-02-26 12:09:00,
2013-02-26 07:14:00,76.2,71.7,30.80,SSE,155,6.0,12.0,86,0.00,,,0.00,Wunderground v.1.15,2013-02-26 12:14:00,
2013-02-26 07:19:00,76.5,72.0,30.80,East,82,5.0,12.0,86,0.00,,,0.00,Wunderground v.1.15,2013-02-26 12:19:00,
2013-02-26 07:25:00,76.7,72.2,30.80,SE,125,5.0,12.0,86,0.00,,,0.00,Wunderground v.1.15,2013-02-26 12:25:00,
2013-02-26 07:31:00,76.6,72.4,30.80,ESE,115,4.0,12.0,87,0.00,,,0.00,Wunderground v.1.15,2013-02-26 12:31:00,
2013-02-26 07:36:00,76.9,72.7,30.81,SSW,208,4.0,12.0,87,0.00,,,0.00,Wunderground v.1.15,2013-02-26 12:36:00,
2013-02-26 07:42:00,77.2,72.7,30.81,SSE,150,4.0,12.0,86,0.00,,,0.00,Wunderground v.1.15,2013-02-26 12:42:00,
2013-02-26 07:48:00,77.5,73.0,30.81,SE,132,5.0,12.0,86,0.00,,,0.00,Wunderground v.1.15,2013-02-26 12:48:00,
2013-02-26 07:54:00,77.7,73.2,30.82,South,187,5.0,12.0,86,0.00,,,0.00,Wunderground v.1.15,2013-02-26 12:54:00,
2013-02-26 08:00:00,78.0,73.1,30.82,ENE,60,5.0,5.0,85,0.00,,,0.00,Wunderground v.1.15,2013-02-26 13:00:00,
2013-02-26 08:05:00,78.1,72.9,30.81,SW,217,5.0,12.0,84,0.00,,,0.00,Wunderground v.1.15,2013-02-26 13:05:00,
2013-02-26 08:11:00,78.3,73.1,30.81,NE,41,5.0,12.0,84,0.00,,,0.00,Wunderground v.1.15,2013-02-26 13:11:00,
2013-02-26 08:17:00,78.4,73.2,30.81,SE,141,5.0,12.0,84,0.00,,,0.00,Wunderground v.1.15,2013-02-26 13:17:00,
2013-02-26 08:22:00,78.5,72.9,30.81,SSW,201,5.0,12.0,83,0.00,,,0.00,Wunderground v.1.15,2013-02-26 13:22:00,
2013-02-26 08:28:00,78.5,73.3,30.81,SSE,148,5.0,12.0,84,0.00,,,0.00,Wunderground v.1.15,2013-02-26 13:28:00,
2013-02-26 08:34:00,78.7,73.5,30.81,ENE,63,5.0,12.0,84,0.00,,,0.00,Wunderground v.1.15,2013-02-26 13:34:00,
2013-02-26 08:40:00,78.9,73.7,30.82,SSE,151,5.0,12.0,84,0.00,,,0.00,Wunderground v.1.15,2013-02-26 13:40:00,
2013-02-26 08:45:00,79.0,73.7,30.82,ESE,113,4.0,12.0,84,0.00,,,0.00,Wunderground v.1.15,2013-02-26 13:45:00,
2013-02-26 08:51:00,79.1,73.5,30.82,SSE,153,4.0,12.0,83,0.00,,,0.00,Wunderground v.1.15,2013-02-26 13:51:00,
2013-02-26 08:57:00,79.4,73.8,30.82,South,169,4.0,12.0,83,0.00,,,0.00,Wunderground v.1.15,2013-02-26 13:57:00,
2013-02-26 09:02:00,79.5,73.9,30.82,South,184,5.0,7.0,83,0.00,,,0.00,Wunderground v.1.15,2013-02-26 14:02:00,
2013-02-26 09:08:00,79.6,74.0,30.83,SSE,160,5.0,12.0,83,0.00,,,0.00,Wunderground v.1.15,2013-02-26 14:08:00,
2013-02-26 09:13:00,79.8,74.2,30.83,SE,139,5.0,12.0,83,0.00,,,0.00,Wunderground v.1.15,2013-02-26 14:13:00,
2013-02-26 09:19:00,80.0,74.4,30.83,South,169,5.0,12.0,83,0.00,,,0.00,Wunderground v.1.15,2013-02-26 14:19:00,
2013-02-26 09:25:00,79.9,74.3,30.83,South,186,5.0,12.0,83,0.00,,,0.00,Wunderground v.1.15,2013-02-26 14:25:00,
2013-02-26 09:31:00,79.8,74.5,30.83,SSE,165,6.0,8.0,84,0.00,,,0.00,Wunderground v.1.15,2013-02-26 14:31:00,
2013-02-26 09:37:00,79.7,74.4,30.83,SSE,149,5.0,12.0,84,0.00,,,0.00,Wunderground v.1.15,2013-02-26 14:37:00,
2013-02-26 09:43:00,79.7,74.4,30.84,South,177,6.0,12.0,84,0.00,,,0.00,Wunderground v.1.15,2013-02-26 14:43:00,
2013-02-26 09:49:00,80.1,74.5,30.84,West,259,6.0,12.0,83,0.00,,,0.00,Wunderground v.1.15,2013-02-26 14:49:00,
2013-02-26 09:55:00,80.5,74.5,30.84,ESE,110,5.0,12.0,82,0.00,,,0.00,Wunderground v.1.15,2013-02-26 14:55:00,
2013-02-26 10:00:00,80.5,74.5,30.84,South,183,5.0,12.0,82,0.00,,,0.00,Wunderground v.1.15,2013-02-26 15:00:00,
2013-02-26 10:06:00,80.3,74.3,30.84,WNW,291,4.0,12.0,82,0.00,,,0.00,Wunderground v.1.15,2013-02-26 15:06:00,
2013-02-26 10:12:00,80.0,74.4,30.84,SW,218,5.0,12.0,83,0.00,,,0.00,Wunderground v.1.15,2013-02-26 15:12:00,
2013-02-26 10:18:00,80.0,74.7,30.85,SE,125,4.0,12.0,84,0.00,,,0.00,Wunderground v.1.15,2013-02-26 15:18:00,
2013-02-26 10:23:00,79.9,74.6,30.85,SSW,198,4.0,12.0,84,0.00,,,0.00,Wunderground v.1.15,2013-02-26 15:23:00,
2013-02-26 10:28:00,79.9,74.3,30.85,South,184,4.0,12.0,83,0.00,,,0.00,Wunderground v.1.15,2013-02-26 15:28:00,
2013-02-26 10:34:00,79.9,74.3,30.85,SSW,198,4.0,12.0,83,0.00,,,0.00,Wunderground v.1.15,2013-02-26 15:34:00,
2013-02-26 10:40:00,79.8,74.5,30.86,WSW,243,4.0,12.0,84,0.00,,,0.00,Wunderground v.1.15,2013-02-26 15:40:00,
2013-02-26 10:45:00,79.8,74.5,30.86,SSW,195,4.0,12.0,84,0.00,,,0.00,Wunderground v.1.15,2013-02-26 15:45:00,
2013-02-26 10:50:00,80.0,74.7,30.86,SSE,150,4.0,4.0,84,0.00,,,0.00,Wunderground v.1.15,2013-02-26 15:50:00,
2013-02-26 10:56:00,80.4,74.8,30.85,SSW,197,3.0,12.0,83,0.00,,,0.00,Wunderground v.1.15,2013-02-26 15:56:00,
2013-02-26 11:02:00,80.5,74.9,30.85,SSE,166,3.0,12.0,83,0.00,,,0.00,Wunderground v.1.15,2013-02-26 16:02:00,
2013-02-26 11:08:00,80.8,75.2,30.85,SSE,148,3.0,12.0,83,0.00,,,0.00,Wunderground v.1.15,2013-02-26 16:08:00,
2013-02-26 11:13:00,81.2,75.2,30.85,SW,231,4.0,12.0,82,0.00,,,0.00,Wunderground v.1.15,2013-02-26 16:13:00,
2013-02-26 11:19:00,81.7,74.9,30.85,ESE,113,4.0,12.0,80,0.00,,,0.00,Wunderground v.1.15,2013-02-26 16:19:00,
2013-02-26 11:25:00,82.2,75.4,30.85,SSW,207,4.0,12.0,80,0.00,,,0.00,Wunderground v.1.15,2013-02-26 16:25:00,
2013-02-26 11:30:00,82.2,75.4,30.85,SSW,212,4.0,12.0,80,0.00,,,0.00,Wunderground v.1.15,2013-02-26 16:30:00,
2013-02-26 11:36:00,82.2,75.4,30.85,South,176,4.0,12.0,80,0.00,,,0.00,Wunderground v.1.15,2013-02-26 16:36:00,
2013-02-26 11:42:00,82.0,75.6,30.84,South,179,4.0,12.0,81,0.00,,,0.00,Wunderground v.1.15,2013-02-26 16:42:00,
2013-02-26 11:47:00,81.9,75.1,30.85,SSE,168,4.0,12.0,80,0.00,,,0.00,Wunderground v.1.15,2013-02-26 16:47:00,
2013-02-26 11:53:00,81.7,74.9,30.84,SSW,203,4.0,12.0,80,0.00,,,0.00,Wunderground v.1.15,2013-02-26 16:53:00,
2013-02-26 11:59:00,81.9,75.5,30.84,South,191,4.0,12.0,81,0.00,,,0.00,Wunderground v.1.15,2013-02-26 16:59:00,
2013-02-26 12:04:00,81.9,75.5,30.84,SSW,194,4.0,12.0,81,0.00,,,0.00,Wunderground v.1.15,2013-02-26 17:04:00,
2013-02-26 12:10:00,82.0,75.6,30.84,SSW,194,4.0,4.0,81,0.00,,,0.00,Wunderground v.1.15,2013-02-26 17:10:00,
2013-02-26 12:15:00,82.6,75.8,30.84,SSW,212,3.0,12.0,80,0.00,,,0.00,Wunderground v.1.15,2013-02-26 17:15:00,
2013-02-26 12:21:00,82.5,75.7,30.84,SSW,210,3.0,12.0,80,0.00,,,0.00,Wunderground v.1.15,2013-02-26 17:21:00,
2013-02-26 12:27:00,82.4,75.6,30.84,West,260,4.0,12.0,80,0.00,,,0.00,Wunderground v.1.15,2013-02-26 17:27:00,
2013-02-26 12:33:00,82.3,75.1,30.85,SW,214,4.0,12.0,79,0.00,,,0.00,Wunderground v.1.15,2013-02-26 17:33:00,
2013-02-26 12:38:00,82.0,75.2,30.85,SSW,207,4.0,12.0,80,0.00,,,0.00,Wunderground v.1.15,2013-02-26 17:38:00,
2013-02-26 12:44:00,81.8,75.0,30.85,SW,221,4.0,12.0,80,0.00,,,0.00,Wunderground v.1.15,2013-02-26 17:44:00,
2013-02-26 12:50:00,81.7,74.9,30.85,SE,127,4.0,12.0,80,0.00,,,0.00,Wunderground v.1.15,2013-02-26 17:50:00,
2013-02-26 12:56:00,81.6,75.2,30.85,SSW,200,3.0,12.0,81,0.00,,,0.00,Wunderground v.1.15,2013-02-26 17:56:00,
2013-02-26 13:01:00,81.3,74.9,30.85,SSW,208,4.0,12.0,81,0.00,,,0.00,Wunderground v.1.15,2013-02-26 18:01:00,
2013-02-26 13:07:00,80.7,74.7,30.84,South,176,4.0,12.0,82,0.00,,,0.00,Wunderground v.1.15,2013-02-26 18:07:00,
2013-02-26 13:13:00,80.5,74.5,30.84,SW,224,4.0,12.0,82,0.00,,,0.00,Wunderground v.1.15,2013-02-26 18:13:00,
2013-02-26 13:19:00,80.5,74.9,30.84,SW,229,4.0,12.0,83,0.00,,,0.00,Wunderground v.1.15,2013-02-26 18:19:00,
2013-02-26 13:24:00,81.3,75.3,30.84,West,277,4.0,12.0,82,0.00,,,0.00,Wunderground v.1.15,2013-02-26 18:24:00,
2013-02-26 13:30:00,81.7,74.9,30.84,SW,219,5.0,12.0,80,0.00,,,0.00,Wunderground v.1.15,2013-02-26 18:30:00,
2013-02-26 13:36:00,81.7,75.3,30.83,SSW,209,5.0,12.0,81,0.00,,,0.00,Wunderground v.1.15,2013-02-26 18:36:00,
2013-02-26 13:42:00,82.2,75.0,30.83,West,269,5.0,12.0,79,0.00,,,0.00,Wunderground v.1.15,2013-02-26 18:42:00,
2013-02-26 13:47:00,82.3,75.1,30.83,SSW,208,5.0,12.0,79,0.00,,,0.00,Wunderground v.1.15,2013-02-26 18:47:00,
2013-02-26 13:53:00,82.7,75.5,30.83,WSW,242,4.0,12.0,79,0.00,,,0.00,Wunderground v.1.15,2013-02-26 18:53:00,
2013-02-26 13:59:00,83.0,75.4,30.83,SSW,204,4.0,12.0,78,0.00,,,0.00,Wunderground v.1.15,2013-02-26 18:59:00,
2013-02-26 14:05:00,82.1,75.3,30.82,South,184,5.0,12.0,80,0.00,,,0.00,Wunderground v.1.15,2013-02-26 19:05:00,
2013-02-26 14:10:00,82.2,75.4,30.82,SE,143,4.0,4.0,80,0.00,,,0.00,Wunderground v.1.15,2013-02-26 19:10:00,
2013-02-26 14:15:00,82.0,75.2,30.82,WSW,253,2.0,12.0,80,0.00,,,0.00,Wunderground v.1.15,2013-02-26 19:15:00,
2013-02-26 14:21:00,81.7,74.9,30.82,South,191,3.0,12.0,80,0.00,,,0.00,Wunderground v.1.15,2013-02-26 19:21:00,
2013-02-26 14:27:00,81.4,74.6,30.82,South,172,3.0,12.0,80,0.00,,,0.00,Wunderground v.1.15,2013-02-26 19:27:00,
2013-02-26 14:32:00,81.2,74.8,30.82,SSW,211,3.0,12.0,81,0.00,,,0.00,Wunderground v.1.15,2013-02-26 19:32:00,
2013-02-26 14:38:00,81.4,75.4,30.81,SW,226,3.0,12.0,82,0.00,,,0.00,Wunderground v.1.15,2013-02-26 19:38:00,
2013-02-26 14:44:00,81.5,75.5,30.81,SW,224,3.0,12.0,82,0.00,,,0.00,Wunderground v.1.15,2013-02-26 19:44:00,
2013-02-26 14:49:00,81.6,75.2,30.81,SSW,213,4.0,12.0,81,0.00,,,0.00,Wunderground v.1.15,2013-02-26 19:49:00,
2013-02-26 14:55:00,81.8,75.8,30.81,ESE,104,4.0,12.0,82,0.00,,,0.00,Wunderground v.1.15,2013-02-26 19:55:00,
2013-02-26 15:01:00,81.7,75.3,30.80,SSE,166,4.0,12.0,81,0.00,,,0.00,Wunderground v.1.15,2013-02-26 20:01:00,
2013-02-26 15:07:00,81.9,75.5,30.80,SE,141,4.0,12.0,81,0.00,,,0.00,Wunderground v.1.15,2013-02-26 20:07:00,
2013-02-26 15:13:00,81.9,75.5,30.80,South,186,3.0,12.0,81,0.00,,,0.00,Wunderground v.1.15,2013-02-26 20:13:00,
2013-02-26 15:19:00,81.8,75.4,30.79,SW,217,3.0,12.0,81,0.00,,,0.00,Wunderground v.1.15,2013-02-26 20:19:00,
2013-02-26 15:24:00,82.2,75.8,30.79,South,177,3.0,12.0,81,0.00,,,0.00,Wunderground v.1.15,2013-02-26 20:24:00,
2013-02-26 15:30:00,83.1,76.3,30.79,ESE,113,3.0,3.0,80,0.00,,,0.00,Wunderground v.1.15,2013-02-26 20:30:00,
2013-02-26 15:36:00,83.4,75.8,30.80,ESE,107,3.0,12.0,78,0.00,,,0.00,Wunderground v.1.15,2013-02-26 20:36:00,
2013-02-26 15:41:00,83.2,75.6,30.80,SSE,149,3.0,4.0,78,0.00,,,0.00,Wunderground v.1.15,2013-02-26 20:41:00,
2013-02-26 15:47:00,82.8,75.2,30.80,SE,143,4.0,12.0,78,0.00,,,0.00,Wunderground v.1.15,2013-02-26 20:47:00,
2013-02-26 15:53:00,82.1,74.9,30.80,SSW,197,4.0,12.0,79,0.00,,,0.00,Wunderground v.1.15,2013-02-26 20:53:00,
2013-02-26 15:59:00,81.9,75.1,30.80,South,172,3.0,12.0,80,0.00,,,0.00,Wunderground v.1.15,2013-02-26 20:59:00,
2013-02-26 16:05:00,82.2,75.4,30.80,SSW,212,3.0,12.0,80,0.00,,,0.00,Wunderground v.1.15,2013-02-26 21:05:00,
2013-02-26 16:11:00,82.0,75.2,30.80,South,188,3.0,12.0,80,0.00,,,0.00,Wunderground v.1.15,2013-02-26 21:11:00,
2013-02-26 16:17:00,82.2,75.4,30.80,South,170,3.0,12.0,80,0.00,,,0.00,Wunderground v.1.15,2013-02-26 21:17:00,
2013-02-26 16:22:00,82.4,75.6,30.80,SW,214,2.0,12.0,80,0.00,,,0.00,Wunderground v.1.15,2013-02-26 21:22:00,
2013-02-26 16:28:00,82.2,75.4,30.80,SSW,195,3.0,12.0,80,0.00,,,0.00,Wunderground v.1.15,2013-02-26 21:28:00,
2013-02-26 16:33:00,82.1,75.3,30.80,ESE,122,3.0,12.0,80,0.00,,,0.00,Wunderground v.1.15,2013-02-26 21:33:00,
2013-02-26 16:39:00,82.1,75.7,30.80,SE,125,3.0,12.0,81,0.00,,,0.00,Wunderground v.1.15,2013-02-26 21:39:00,
2013-02-26 16:45:00,82.0,75.2,30.80,SSE,155,3.0,12.0,80,0.00,,,0.00,Wunderground v.1.15,2013-02-26 21:45:00,
2013-02-26 16:51:00,81.9,75.1,30.81,SSE,160,2.0,12.0,80,0.00,,,0.00,Wunderground v.1.15,2013-02-26 21:51:00,
2013-02-26 16:57:00,81.6,75.2,30.81,ESE,108,2.0,12.0,81,0.00,,,0.00,Wunderground v.1.15,2013-02-26 21:57:00,
2013-02-26 17:02:00,81.2,74.8,30.81,SSE,166,2.0,12.0,81,0.00,,,0.00,Wunderground v.1.15,2013-02-26 22:02:00,
2013-02-26 17:08:00,80.9,74.9,30.81,SSE,159,2.0,12.0,82,0.00,,,0.00,Wunderground v.1.15,2013-02-26 22:08:00,
2013-02-26 17:13:00,80.7,74.7,30.81,SSE,166,2.0,12.0,82,0.00,,,0.00,Wunderground v.1.15,2013-02-26 22:13:00,
2013-02-26 17:19:00,81.1,75.1,30.81,SSW,203,2.0,12.0,82,0.00,,,0.00,Wunderground v.1.15,2013-02-26 22:19:00,
2013-02-26 17:25:00,81.4,75.4,30.81,SSE,148,2.0,12.0,82,0.00,,,0.00,Wunderground v.1.15,2013-02-26 22:25:00,
2013-02-26 17:31:00,81.3,74.9,30.81,SE,145,2.0,12.0,81,0.00,,,0.00,Wunderground v.1.15,2013-02-26 22:31:00,
2013-02-26 17:36:00,80.9,74.9,30.82,WSW,240,2.0,12.0,82,0.00,,,0.00,Wunderground v.1.15,2013-02-26 22:36:00,
2013-02-26 17:42:00,80.6,75.0,30.82,East,97,2.0,12.0,83,0.00,,,0.00,Wunderground v.1.15,2013-02-26 22:42:00,
2013-02-26 17:48:00,80.4,75.1,30.82,SSW,198,2.0,12.0,84,0.00,,,0.00,Wunderground v.1.15,2013-02-26 22:48:00,
2013-02-26 17:53:00,80.0,75.1,30.82,South,177,2.0,12.0,85,0.00,,,0.00,Wunderground v.1.15,2013-02-26 22:53:00,
2013-02-26 17:59:00,79.6,74.7,30.82,ENE,70,2.0,12.0,85,0.00,,,0.00,Wunderground v.1.15,2013-02-26 22:59:00,
2013-02-26 18:04:00,79.2,74.6,30.82,ESE,103,2.0,12.0,86,0.00,,,0.00,Wunderground v.1.15,2013-02-26 23:04:00,
2013-02-26 18:09:00,78.9,74.7,30.82,SE,125,2.0,12.0,87,0.00,,,0.00,Wunderground v.1.15,2013-02-26 23:09:00,
2013-02-26 18:15:00,78.7,74.5,30.82,SSE,163,2.0,12.0,87,0.00,,,0.00,Wunderground v.1.15,2013-02-26 23:15:00,
2013-02-26 18:21:00,78.4,74.5,30.82,SSW,208,2.0,12.0,88,0.00,,,0.00,Wunderground v.1.15,2013-02-26 23:21:00,
2013-02-26 18:27:00,78.1,74.6,30.82,SE,131,2.0,12.0,89,0.00,,,0.00,Wunderground v.1.15,2013-02-26 23:27:00,
2013-02-26 18:32:00,77.9,74.4,30.82,SSE,154,2.0,12.0,89,0.00,,,0.00,Wunderground v.1.15,2013-02-26 23:32:00,
2013-02-26 18:38:00,77.8,74.6,30.83,ESE,121,1.0,12.0,90,0.00,,,0.00,Wunderground v.1.15,2013-02-26 23:38:00,
2013-02-26 18:44:00,77.7,74.5,30.83,SW,233,1.0,12.0,90,0.00,,,0.00,Wunderground v.1.15,2013-02-26 23:44:00,
2013-02-26 18:50:00,77.6,74.4,30.83,SE,131,2.0,2.0,90,0.00,,,0.00,Wunderground v.1.15,2013-02-26 23:50:00,
2013-02-26 18:55:00,77.5,74.7,30.83,South,173,2.0,12.0,91,0.00,,,0.00,Wunderground v.1.15,2013-02-26 23:55:00,
2013-02-26 19:01:00,77.5,74.7,30.83,SW,214,1.0,2.0,91,0.00,,,0.00,Wunderground v.1.15,2013-02-27 00:01:00,
2013-02-26 19:07:00,77.4,74.6,30.83,SW,224,1.0,12.0,91,0.00,,,0.00,Wunderground v.1.15,2013-02-27 00:07:00,
2013-02-26 19:13:00,77.4,74.6,30.83,SSE,156,2.0,12.0,91,0.00,,,0.00,Wunderground v.1.15,2013-02-27 00:13:00,
2013-02-26 19:18:00,77.4,74.6,30.83,SE,146,2.0,12.0,91,0.00,,,0.00,Wunderground v.1.15,2013-02-27 00:18:00,
2013-02-26 19:24:00,77.5,75.0,30.84,SSE,155,2.0,12.0,92,0.00,,,0.00,Wunderground v.1.15,2013-02-27 00:24:00,
2013-02-26 19:30:00,77.4,74.9,30.84,South,173,2.0,12.0,92,0.00,,,0.00,Wunderground v.1.15,2013-02-27 00:30:00,
2013-02-26 19:36:00,77.4,74.9,30.84,SE,143,2.0,12.0,92,0.00,,,0.00,Wunderground v.1.15,2013-02-27 00:36:00,
2013-02-26 19:41:00,77.3,74.8,30.84,SSW,212,1.0,12.0,92,0.00,,,0.00,Wunderground v.1.15,2013-02-27 00:41:00,
2013-02-26 19:47:00,77.2,74.7,30.84,SSW,211,2.0,12.0,92,0.00,,,0.00,Wunderground v.1.15,2013-02-27 00:47:00,
2013-02-26 19:52:00,77.3,74.8,30.85,SSW,200,2.0,12.0,92,0.00,,,0.00,Wunderground v.1.15,2013-02-27 00:52:00,
2013-02-26 19:58:00,77.2,74.7,30.85,SSW,201,2.0,12.0,92,0.00,,,0.00,Wunderground v.1.15,2013-02-27 00:58:00,
2013-02-26 20:03:00,77.1,74.6,30.85,SW,236,2.0,12.0,92,0.00,,,0.00,Wunderground v.1.15,2013-02-27 01:03:00,
2013-02-26 20:09:00,77.1,74.6,30.86,South,172,3.0,12.0,92,0.00,,,0.00,Wunderground v.1.15,2013-02-27 01:09:00,
2013-02-26 20:15:00,77.1,74.3,30.86,SW,221,3.0,12.0,91,0.00,,,0.00,Wunderground v.1.15,2013-02-27 01:15:00,
2013-02-26 20:21:00,77.2,74.4,30.86,SSE,167,3.0,12.0,91,0.00,,,0.00,Wunderground v.1.15,2013-02-27 01:21:00,
2013-02-26 20:26:00,77.3,74.5,30.86,South,176,3.0,12.0,91,0.00,,,0.00,Wunderground v.1.15,2013-02-27 01:26:00,
2013-02-26 20:32:00,77.5,74.7,30.87,South,183,3.0,12.0,91,0.00,,,0.00,Wunderground v.1.15,2013-02-27 01:32:00,
2013-02-26 20:38:00,77.5,74.7,30.86,SSW,205,3.0,12.0,91,0.00,,,0.00,Wunderground v.1.15,2013-02-27 01:38:00,
2013-02-26 20:44:00,77.5,74.7,30.86,SSE,158,2.0,12.0,91,0.00,,,0.00,Wunderground v.1.15,2013-02-27 01:44:00,
2013-02-26 20:50:00,77.5,74.7,30.87,South,169,3.0,12.0,91,0.00,,,0.00,Wunderground v.1.15,2013-02-27 01:50:00,
2013-02-26 20:56:00,77.5,74.7,30.87,SSW,211,3.0,12.0,91,0.00,,,0.00,Wunderground v.1.15,2013-02-27 01:56:00,
2013-02-26 21:01:00,77.5,74.7,30.87,WSW,250,2.0,12.0,91,0.00,,,0.00,Wunderground v.1.15,2013-02-27 02:01:00,
2013-02-26 21:07:00,77.4,74.6,30.87,South,173,3.0,12.0,91,0.00,,,0.00,Wunderground v.1.15,2013-02-27 02:07:00,
2013-02-26 21:13:00,77.5,74.7,30.87,SW,215,3.0,12.0,91,0.00,,,0.00,Wunderground v.1.15,2013-02-27 02:13:00,
2013-02-26 21:18:00,77.4,74.6,30.86,SE,146,3.0,12.0,91,0.00,,,0.00,Wunderground v.1.15,2013-02-27 02:18:00,
2013-02-26 21:23:00,77.5,74.7,30.86,SSW,208,3.0,12.0,91,0.00,,,0.00,Wunderground v.1.15,2013-02-27 02:23:00,
2013-02-26 21:29:00,77.4,74.6,30.86,SSW,197,2.0,12.0,91,0.00,,,0.00,Wunderground v.1.15,2013-02-27 02:29:00,
2013-02-26 21:35:00,77.4,74.6,30.87,SW,225,2.0,12.0,91,0.00,,,0.00,Wunderground v.1.15,2013-02-27 02:35:00,
2013-02-26 21:40:00,77.4,74.6,30.87,SSE,155,2.0,12.0,91,0.00,,,0.00,Wunderground v.1.15,2013-02-27 02:40:00,
2013-02-26 21:46:00,77.4,74.6,30.87,SSW,203,2.0,12.0,91,0.00,,,0.00,Wunderground v.1.15,2013-02-27 02:46:00,
2013-02-26 21:51:00,77.5,74.7,30.87,SSE,166,3.0,12.0,91,0.00,,,0.00,Wunderground v.1.15,2013-02-27 02:51:00,
2013-02-26 21:57:00,77.5,74.7,30.87,SSW,208,3.0,12.0,91,0.00,,,0.00,Wunderground v.1.15,2013-02-27 02:57:00,
2013-02-26 22:02:00,77.6,74.8,30.88,SSW,211,3.0,12.0,91,0.00,,,0.00,Wunderground v.1.15,2013-02-27 03:02:00,
2013-02-26 22:07:00,77.7,74.9,30.88,SW,219,3.0,12.0,91,0.00,,,0.00,Wunderground v.1.15,2013-02-27 03:07:00,
2013-02-26 22:12:00,77.7,74.5,30.88,South,181,3.0,12.0,90,0.00,,,0.00,Wunderground v.1.15,2013-02-27 03:12:00,
2013-02-26 22:18:00,77.7,74.5,30.87,South,169,3.0,12.0,90,0.00,,,0.00,Wunderground v.1.15,2013-02-27 03:18:00,
2013-02-26 22:24:00,77.8,74.6,30.87,SW,230,3.0,12.0,90,0.00,,,0.00,Wunderground v.1.15,2013-02-27 03:24:00,
2013-02-26 22:30:00,77.9,74.7,30.87,SSW,211,3.0,3.0,90,0.00,,,0.00,Wunderground v.1.15,2013-02-27 03:30:00,
2013-02-26 22:35:00,77.9,74.7,30.88,SSW,197,4.0,12.0,90,0.00,,,0.00,Wunderground v.1.15,2013-02-27 03:35:00,
2013-02-26 22:41:00,78.0,74.8,30.87,SSW,198,4.0,12.0,90,0.00,,,0.00,Wunderground v.1.15,2013-02-27 03:41:00,
2013-02-26 22:47:00,78.0,74.8,30.87,SSE,162,4.0,12.0,90,0.00,,,0.00,Wunderground v.1.15,2013-02-27 03:47:00,
2013-02-26 22:52:00,78.1,74.9,30.87,South,189,3.0,12.0,90,0.00,,,0.00,Wunderground v.1.15,2013-02-27 03:52:00,
2013-02-26 22:57:00,78.1,74.9,30.87,SW,236,4.0,12.0,90,0.00,,,0.00,Wunderground v.1.15,2013-02-27 03:57:00,
2013-02-26 23:02:00,78.2,75.0,30.87,WSW,241,4.0,12.0,90,0.00,,,0.00,Wunderground v.1.15,2013-02-27 04:02:00,
2013-02-26 23:08:00,78.3,75.1,30.87,SSE,163,4.0,12.0,90,0.00,,,0.00,Wunderground v.1.15,2013-02-27 04:08:00,
2013-02-26 23:13:00,78.2,75.0,30.87,South,172,4.0,12.0,90,0.00,,,0.00,Wunderground v.1.15,2013-02-27 04:13:00,
2013-02-26 23:19:00,78.2,75.0,30.87,SW,221,4.0,12.0,90,0.00,,,0.00,Wunderground v.1.15,2013-02-27 04:19:00,
2013-02-26 23:24:00,78.1,74.9,30.87,West,279,4.0,12.0,90,0.00,,,0.00,Wunderground v.1.15,2013-02-27 04:24:00,
2013-02-26 23:30:00,78.1,74.9,30.87,SSW,206,5.0,5.0,90,0.00,,,0.00,Wunderground v.1.15,2013-02-27 04:30:00,
2013-02-26 23:36:00,78.1,75.3,30.86,SW,225,4.0,12.0,91,0.00,,,0.00,Wunderground v.1.15,2013-02-27 04:36:00,
2013-02-26 23:42:00,78.0,75.2,30.87,SW,215,4.0,12.0,91,0.00,,,0.00,Wunderground v.1.15,2013-02-27 04:42:00,
2013-02-26 23:47:00,78.0,75.2,30.86,SSW,204,4.0,12.0,91,0.00,,,0.00,Wunderground v.1.15,2013-02-27 04:47:00,
2013-02-26 23:53:00,77.9,75.4,30.86,SSW,195,4.0,12.0,92,0.00,,,0.00,Wunderground v.1.15,2013-02-27 04:53:00,
2013-02-26 23:59:00,77.9,75.1,30.86,SW,224,4.0,12.0,91,0.00,,,0.00,Wunderground v.1.15,2013-02-27 04:59:00,